This is the latest recevied weather packets stored in our database for station/object KD4KKF. If no packets are shown the sender has not sent any weather packets the latest 10 day(s).
| Time | Temp. | Humidity | Pressure | Rain* | Wind** | Luminosity | Snow |
|---|---|---|---|---|---|---|---|
| 1778264997 | 21.11° C | 59% | 1013.9 hPa | 0 mm | - | 416 W/m² | - |
| 1778264694 | 21.11° C | 63% | 1013.9 hPa | 0 mm | - | 517 W/m² | - |
| 1778264390 | 21.11° C | 61% | 1013.8 hPa | 0 mm | - | 380 W/m² | - |
| 1778264086 | 20.56° C | 61% | 1013.9 hPa | 0 mm | - | 422 W/m² | - |
| 1778263784 | 21.11° C | 63% | 1013.9 hPa | 0 mm | - | 351 W/m² | - |
| 1778263481 | 20.56° C | 60% | 1013.8 hPa | 0 mm | - | 350 W/m² | - |
| 1778263177 | 20.56° C | 59% | 1014 hPa | 0 mm | - | 409 W/m² | - |
| 1778262873 | 20.56° C | 62% | 1014.2 hPa | 0 mm | - | 416 W/m² | - |
| 1778262571 | 20.56° C | 58% | 1014.1 hPa | 0 mm | - | 403 W/m² | - |
| 1778262269 | 20.56° C | 62% | 1014.2 hPa | 0 mm | - | 394 W/m² | - |
| 1778261965 | 20.56° C | 62% | 1014.3 hPa | 0 mm | - | 373 W/m² | - |
| 1778261663 | 20.56° C | 61% | 1014.4 hPa | 0 mm | - | 336 W/m² | - |
| 1778261358 | 20° C | 59% | 1014.6 hPa | 0 mm | - | 322 W/m² | - |
| 1778261056 | 20.56° C | 59% | 1014.5 hPa | 0 mm | - | 349 W/m² | - |
| 1778260751 | 20.56° C | 59% | 1014.8 hPa | 0 mm | - | 392 W/m² | - |
| 1778260448 | 20.56° C | 59% | 1014.9 hPa | 0 mm | - | 418 W/m² | - |
| 1778260145 | 20.56° C | 56% | 1015.1 hPa | 0 mm | - | 440 W/m² | - |
| 1778259843 | 20.56° C | 57% | 1015.1 hPa | 0 mm | - | 496 W/m² | - |
| 1778259539 | 20.56° C | 56% | 1015.2 hPa | 0 mm | - | 407 W/m² | - |
| 1778259237 | 20.56° C | 56% | 1015.3 hPa | 0 mm | - | 605 W/m² | - |
| 1778258932 | 20.56° C | 60% | 1015.5 hPa | 0 mm | - | 636 W/m² | - |
| 1778258630 | 20.56° C | 60% | 1015.7 hPa | 0 mm | - | 339 W/m² | - |
| 1778258327 | 20° C | 63% | 1015.6 hPa | 0 mm | - | 350 W/m² | - |
| 1778258025 | 20.56° C | 60% | 1015.9 hPa | 0 mm | - | 373 W/m² | - |
| 1778257720 | 20° C | 58% | 1015.8 hPa | 0 mm | - | 386 W/m² | - |
* Rain latest hour (hover to see other rain measurements)
** Current wind speed in m/s (hover to see current wind gust speed)